This demonstration page uses our WeatherBlox Daily Observations layout. Learn more.

Left ArrowRight Arrow

31.31129, -92.44514

Hourly Observations for July 10, 2022

Temp ( °F °C ) Dew Point ( °F °C ) Humidity (%) Winds ( mph kmh ) Pressure ( in mb ) Visibility ( mi km ) Precip ( " mm )
12:53 am 00:53 Clear 87 30.6 76 24.4 70 70 SW 7 11 29.94 1014 10 16 0.00 0.00
1:53 am 01:53 Mostly Clear 85 29.4 77 25 77 77 SW 6 9 29.93 1014 10 16 0.00 0.00
2:53 am 02:53 Clear 85 29.4 76 24.4 75 75 WSW 3 6 29.93 1013 10 16 0.00 0.00
3:53 am 03:53 Partly Cloudy 84 28.9 75 23.9 74 74 SSW 3 6 29.92 1013 10 16 0.00 0.00
4:53 am 04:53 Cloudy 84 28.9 75 23.9 74 74 SE 3 6 29.93 1014 10 16 0.00 0.00
5:53 am 05:53 Cloudy 82 27.8 76 24.4 82 82 SSE 5 7 29.93 1014 10 16 0.00 0.00
6:53 am 06:53 Mostly Cloudy 82 27.8 76 24.4 82 82 S 5 7 29.94 1014 10 16 0.00 0.00
7:53 am 07:53 Mostly Cloudy 84 28.9 76 24.4 77 77 SSW 7 11 29.95 1014 10 16 0.00 0.00
8:53 am 08:53 Sunny 87 30.6 75 23.9 67 67 SW 9 15 29.96 1015 10 16 0.00 0.00
9:53 am 09:53 Sunny 90 32.2 76 24.4 63 63 WSW 6 9 29.95 1014 10 16 0.00 0.00
10:53 am 10:53 Sunny 93 33.9 75 23.9 56 56 WSW 9 15 29.93 1014 10 16 0.00 0.00
11:53 am 11:53 Sunny 95 35 72 22.2 47 47 VRB 6 9 29.92 1013 10 16 0.00 0.00
12:53 pm 12:53 Mostly Sunny 98 36.7 73 22.8 45 45 WNW 10 17 29.91 1013 10 16 0.00 0.00
1:53 pm 13:53 Partly Cloudy 98 36.7 73 22.8 45 45 VRB 3 6 29.89 1012 10 16 0.00 0.00
2:53 pm 14:53 Sunny 102 38.9 74 23.3 41 41 NNE 7 11 29.86 1011 10 16 0.00 0.00
3:53 pm 15:53 Mostly Sunny 102 38.9 75 23.9 42 42 Calm 29.84 1010 10 16 0.00 0.00
4:53 pm 16:53 Mostly Sunny 95 35 77 25 56 56 ENE 12 19 29.83 1010 10 16 0.00 0.00
5:36 pm 17:36 Mostly Cloudy 89 31.7 75 23.9 63 63 N 14 22 29.82 1010 2 3 0.05 1.27
5:48 pm 17:48 Mostly Cloudy 91 33 79 26 67 67 undefined N/A 29.81 1010 3 5 0.10 2.54
5:53 pm 17:53 Mostly Cloudy 89 31.7 78 25.6 70 70 ENE 7 11 29.82 1010 9 14 0.10 2.54
6:53 pm 18:53 Mostly Sunny 91 32.8 80 26.7 70 70 E 6 9 29.83 1010 9 14 0.00 0.00
7:53 pm 19:53 Cloudy 88 31.1 76 24.4 68 68 SE 9 15 29.85 1011 10 16 0.00 0.00
8:02 pm 20:02 Cloudy 88 31.1 75 23.9 66 66 SE 9 15 29.85 1011 10 16 0.00 0.00
8:53 pm 20:53 Mostly Cloudy 87 30.6 75 23.9 67 67 SSE 10 17 29.88 1012 10 16 0.00 0.00
9:05 pm 21:05 Cloudy 86 30 76 24.4 72 72 SE 5 7 29.88 1012 10 16 0.00 0.00
9:53 pm 21:53 Cloudy 87 30.6 75 23.9 67 67 NE 3 6 29.89 1012 10 16 0.00 0.00
10:18 pm 22:18 Mostly Cloudy 86 30 76 24.4 72 72 ENE 7 11 29.89 1012 10 16 0.00 0.00
10:53 pm 22:53 Partly Cloudy 86 30 75 23.9 70 70 E 3 6 29.89 1012 10 16 0.00 0.00
11:53 pm 23:53 Cloudy 85 29.4 76 24.4 75 75 ENE 6 9 29.89 1012 10 16 0.00 0.00

Powered by AerisWeather